Flag for France Weather past 2 weeks in Boulogne-Billancourt, France

43 °F

Passing clouds.

Feels Like: 36 °F
Forecast: 35 / 53 °F
Wind: 12 mph from Northeast

Location: Paris-Orly

Current Time: Oct 14, 2015 at 1:09:06 AM

Latest Report: Oct 14, 2015 at 12:30 AM

Visibility: 6 mi

Pressure: 30.15 "Hg

Humidity: 71%

Dew point: 34 °F

Location of Boulogne-BillancourtLocation

Historic Weather in Boulogne-Billancourt — Graph


Boulogne-Billancourt temperature yesterday

Maximum temperature yesterday: 54 °F (at 4:00 PM)
Minimum temperature yesterday: 41 °F (at 5:00 AM)
Average temperature yesterday: 48 °F

Past Weeks' High & Low Weather Summary

High72 °F (Oct 3, 4:30 PM)100% (Oct 3, 8:00 AM)30.45 "Hg (Oct 3, 8:00 AM)
Low41 °F (Oct 13, 5:00 AM)40% (Sep 29, 4:00 PM)29.56 "Hg (Oct 6, 7:00 AM)
Average55 °F76%30.04 "Hg
* Reported Sep 28 11:00 PM — Oct 13 11:30 PM, Boulogne-Billancourt, Weather by CustomWeather, © 2015

Note: Actual official high and low records may vary slightly from our data, if they occured in-between our weather recording intervals... More about our weather records


Boulogne-Billancourt weather history for previous 24 hours

Time TempWeatherWind HumidityBarometerVisibility
11:30 PM
Tue, Oct 13
45 °FPassing clouds.12 mph76%30.12 "Hg5 mi
11:00 PM45 °FPassing clouds.9 mph76%30.12 "HgN/A
10:30 PM46 °FPartly cloudy.12 mph71%30.12 "HgN/A
10:00 PM46 °FPassing clouds.9 mph66%30.12 "HgN/A
9:30 PM48 °FPartly cloudy.12 mph66%30.12 "HgN/A
9:00 PM48 °FPassing clouds.10 mph62%30.12 "HgN/A
8:30 PM48 °FPassing clouds.10 mph62%30.12 "HgN/A
8:00 PM48 °FPartly sunny.13 mph62%30.09 "HgN/A
7:30 PM46 °FScattered clouds.12 mph62%30.09 "HgN/A
7:00 PM50 °FScattered clouds.14 mph54%30.09 "HgN/A
6:30 PM50 °FPartly sunny.14 mph58%30.09 "HgN/A
6:00 PM52 °FPartly sunny.12 mph54%30.07 "HgN/A
5:30 PM52 °FScattered clouds.14 mph58%30.07 "HgN/A
5:00 PM52 °FScattered clouds.12 mph58%30.07 "HgN/A
4:30 PM54 °FScattered clouds.15 mph51%30.07 "HgN/A
4:00 PM54 °FScattered clouds.13 mph54%30.07 "HgN/A
3:30 PM52 °FPartly sunny.14 mph58%30.07 "HgN/A
3:00 PM52 °FScattered clouds.13 mph58%30.07 "HgN/A
2:30 PM52 °FPassing clouds.12 mph58%30.07 "HgN/A
2:00 PM52 °FPassing clouds.13 mph62%30.07 "HgN/A
1:30 PM52 °FPartly sunny.14 mph67%30.07 "HgN/A
1:00 PM52 °FPartly sunny.15 mph72%30.07 "HgN/A
12:30 PM52 °FPartly sunny.14 mph72%30.07 "HgN/A
12:00 PM52 °FPartly sunny.13 mph72%30.07 "HgN/A
11:30 AM52 °FScattered clouds.14 mph72%30.04 "HgN/A
10:30 AM50 °FScattered clouds.7 mph76%30.04 "HgN/A
10:00 AM48 °FScattered clouds.6 mph82%30.04 "HgN/A
9:30 AM48 °FPartly sunny.7 mph82%30.04 "HgN/A
9:00 AM46 °FClear.6 mph87%30.04 "Hg10 mi
8:30 AM46 °FClear.5 mph82%30.04 "Hg6 mi
8:00 AM46 °FPassing clouds.5 mph87%30.04 "Hg5 mi
7:30 AM45 °FPassing clouds.5 mph93%30.01 "Hg4 mi
7:00 AM45 °FPassing clouds.6 mph93%30.01 "Hg4 mi
6:30 AM41 °FClear.3 mph100%30.01 "Hg4 mi
6:00 AM41 °FPassing clouds.3 mph93%30.01 "Hg4 mi
5:30 AM41 °FPassing clouds.3 mph93%30.01 "Hg4 mi
5:00 AM41 °FPassing clouds.5 mph93%30.01 "Hg5 mi
4:30 AM43 °FPartly cloudy.5 mph93%30.01 "Hg5 mi
4:00 AM43 °FPartly cloudy.2 mph87%30.04 "Hg6 mi
3:30 AM45 °FPassing clouds.3 mph87%30.04 "Hg6 mi
3:00 AM45 °FPassing clouds.2 mph87%30.04 "Hg6 mi
2:30 AM45 °FPassing clouds.5 mph87%30.04 "Hg6 mi
2:00 AM45 °FPassing clouds.3 mph87%30.04 "Hg6 mi
1:30 AM46 °FPassing clouds.6 mph82%30.04 "Hg6 mi
1:00 AM46 °FPassing clouds.6 mph82%30.04 "Hg6 mi
Weather by CustomWeather, © 2015

See weather overviewHow to use our weather pages